Regional Weather Roundup
Issued by NWS Sioux Falls, SD

Home | Current Version | Previous Version | Graphics & Text | Print | Product List | Glossary On
Versions: 1 2 3 4 5 6 7 8 9 10 11 12 13 14 15 16 17 18 19 20 21 22 23 24 25 26 27 28 29 30 31 32 33 34 35 36 37 38 39 40 41 42 43 44 45 46 47 48 49 50
000
ASUS43 KFSD 251402
RWRFSD

WEATHER ROUNDUP FOR SE SOUTH DAKOTA/SW MINNESOTA/NW IOWA
NATIONAL WEATHER SERVICE SIOUX FALLS SD
900 AM CDT MON MAY 25 2015

NOTE: "FAIR" INDICATES FEW OR NO CLOUDS BELOW 12,000 FEET WITH NO
SIGNIFICANT WEATHER AND OR OBSTRUCTIONS TO VISIBILITY.


SDZ038>040-050-052>070-251500-
SOUTHEAST SOUTH DAKOTA

CITY           SKY/WX    TMP DP  RH WIND       PRES   REMARKS
BROOKINGS      CLOUDY    57  55  94 W6        29.75F
CHAMBERLAIN    CLOUDY    56  56  98 CALM      29.78R FOG
HURON          CLOUDY    59  58  96 N7        29.75F FOG
MADISON        FAIR      55  55 100 NW5       29.75F
MITCHELL       CLOUDY    59  58  96 NW7       29.77R
SIOUX FALLS    CLOUDY    61  57  87 NW6       29.75S
WINNER         LGT RAIN  58  56  93 NE6       29.78R
YANKTON        CLOUDY    59  57  94 N3        29.76R
$$

MNZ071-072-080-081-089-090-097-098-251500-
SOUTHWEST MINNESOTA

CITY           SKY/WX    TMP DP  RH WIND       PRES   REMARKS
FAIRMONT       CLOUDY    63  54  72 W13       29.74S
JACKSON        CLOUDY    59  59 100 W8        29.74F
LUVERNE        CLOUDY    61  55  82 W6        29.75S
MARSHALL       CLOUDY    59  54  82 W9        29.72S
MONTEVIDEO     CLOUDY    59  59 100 N7        29.70F FOG
REDWOOD FALLS  CLOUDY    59  58  96 W12       29.70S
TRACY          CLOUDY    61  58  91 W8        29.73S
WINDOM         CLOUDY    61  59  94 SW9       29.73F
WORTHINGTON    CLOUDY    61  55  82 W8        29.75F
$$

IAZ001>003-012>014-020>022-031-032-NEZ013-014-SDZ071-251500-
NORTHWEST IOWA

CITY           SKY/WX    TMP DP  RH WIND       PRES   REMARKS
DENISON        CLOUDY    63  63 100 S12       29.78S FOG
ESTHERVILLE    CLOUDY    61  58  90 W10       29.74F
LE MARS        CLOUDY    63  61  94 S7        29.78F
SIOUX CITY     CLOUDY    62  60  93 S7        29.79R FOG
SPENCER        CLOUDY    63  60  90 W13       29.76S
$$

ABBREVIATIONS USED IN REMARKS
   TC - TEMPERATURE IN CELSIUS
  WCI - WIND CHILL INDEX
   HX - HEAT INDEX
  VSB - VISIBILITY



USA.gov is the U.S. government's official web portal to all federal, state and local government web resources and services.